Location: Hartman Creek State Park
(44.3257°N, 89.2134°W)
Time: 06:59:49
(UTC-05:00)

Terra - Visible Passes

Search period start: 23 August 2017 00:00
Search period end: 02 September 2017 00:00
Orbit: 702 x 703 km, 98.2° (Epoch: 23 August)

Date Brightness Start Highest point End Pass type
(mag) Time Alt. Az. Time Alt. Az. Time Alt. Az.
23 Aug 2.8 22:04:46 31° ENE 22:04:52 31° ENE 22:09:02 10° N visible
23 Aug 3.5 23:43:40 28° WNW 23:43:40 28° WNW 23:46:48 10° NNW visible
24 Aug 4.0 21:09:49 10° ENE 21:10:32 10° ENE 21:11:15 10° NE visible
24 Aug 2.1 22:48:08 63° NNE 22:48:08 63° NNE 22:52:13 10° N visible
25 Aug 4.5 00:27:02 11° WNW 00:27:02 11° WNW 00:27:39 10° WNW visible
25 Aug 3.2 21:52:37 24° ENE 21:52:46 24° ENE 21:56:34 10° NNE visible
25 Aug 3.2 23:31:31 34° WNW 23:31:31 34° WNW 23:34:47 10° NNW visible
26 Aug 2.3 22:36:00 52° NE 22:36:00 52° NE 22:39:57 10° N visible
27 Aug 4.3 00:14:53 14° WNW 00:14:53 14° WNW 00:16:21 10° NW visible
27 Aug 3.4 21:40:29 19° ENE 21:40:40 19° ENE 21:44:00 10° NNE visible
27 Aug 3.0 23:19:22 40° NW 23:19:22 40° NW 23:22:42 10° NNW visible
28 Aug 2.6 22:23:51 41° NE 22:23:51 41° NE 22:27:38 10° N visible
29 Aug 4.1 00:02:44 18° WNW 00:02:44 18° WNW 00:04:40 10° NW visible
29 Aug 3.7 21:28:20 15° ENE 21:28:37 15° ENE 21:31:18 10° NNE visible
29 Aug 2.8 23:07:13 44° NNW 23:07:13 44° NNW 23:10:33 10° NNW visible
30 Aug 2.9 22:11:43 33° NE 22:11:43 33° NE 22:15:16 10° N visible
30 Aug 4.0 23:50:36 21° WNW 23:50:36 21° WNW 23:52:48 10° NW visible
31 Aug 3.9 21:16:12 12° ENE 21:16:34 12° ENE 21:18:16 10° NE visible
31 Aug 2.8 22:55:05 44° NNW 22:55:05 44° NNW 22:58:22 10° NNW visible
01 Sep 3.2 21:59:34 26° NE 21:59:34 26° NE 22:02:50 10° N visible
01 Sep 3.8 23:38:28 25° NW 23:38:28 25° NW 23:40:49 10° NNW visible
